| time (UTC) | temp C | wind direction | speed KPH | gust KPH | rain 1hr cm | rain 24hr cm | rain mn cm | humidity % | barometer mb |
| 20260904232204 | 20 | 47 | 1.6 | 1.6 | 0.00 | 0.00 | 0.00 | 66 | 1012.2 |
| 20260904231705 | 20 | 167 | 0.0 | 3.2 | 0.00 | 0.00 | 0.00 | 64 | 1012.1 |
| 20260904231205 | 20 | 229 | 0.0 | 3.2 | 0.00 | 0.00 | 0.00 | 63 | 1012.0 |
| 20260904225705 | 20 | 160 | 1.6 | 1.6 | 0.00 | 0.00 | 0.00 | 61 | 1012.0 |
| 20260904224204 | 20 | 155 | 0.0 | 4.8 | 0.00 | 0.00 | 0.00 | 64 | 1011.9 |
| 20260904223204 | 19 | 174 | 1.6 | 3.2 | 0.00 | 0.00 | 0.00 | 64 | 1012.0 |
| 20260904222204 | 19 | 335 | 0.0 | 3.2 | 0.00 | 0.00 | 0.00 | 63 | 1011.9 |
| 20260904215704 | 18 | 191 | 0.0 | 3.2 | 0.00 | 0.00 | 0.00 | 65 | 1012.0 |
| 20260904215205 | 18 | 245 | 0.0 | 3.2 | 0.00 | 0.00 | 0.00 | 65 | 1012.0 |
| 20260904214705 | 18 | 277 | 0.0 | 3.2 | 0.00 | 0.00 | 0.00 | 65 | 1011.9 |
| 20260904214205 | 18 | 238 | 1.6 | 3.2 | 0.00 | 0.00 | 0.00 | 64 | 1012.0 |
| 20260904213704 | 18 | 260 | 0.0 | 4.8 | 0.00 | 0.00 | 0.00 | 64 | 1012.1 |
| 20260904213205 | 18 | 318 | 1.6 | 4.8 | 0.00 | 0.00 | 0.00 | 66 | 1012.0 |
| 20260904212204 | 18 | 161 | 0.0 | 1.6 | 0.00 | 0.00 | 0.00 | 67 | 1012.0 |
| 20260904211205 | 19 | 281 | 1.6 | 3.2 | 0.00 | 0.00 | 0.00 | 63 | 1011.9 |
| 20260904210705 | 19 | 176 | 1.6 | 3.2 | 0.00 | 0.00 | 0.00 | 64 | 1011.9 |
| 20260904210204 | 19 | 312 | 0.0 | 3.2 | 0.00 | 0.00 | 0.00 | 64 | 1011.8 |
| 20260904205705 | 19 | 302 | 0.0 | 1.6 | 0.00 | 0.00 | 0.00 | 62 | 1011.9 |
| 20260904204204 | 20 | 223 | 1.6 | 4.8 | 0.00 | 0.00 | 0.00 | 56 | 1011.8 |
| 20260904201704 | 21 | 156 | 1.6 | 3.2 | 0.00 | 0.00 | 0.00 | 56 | 1011.9 |
| 20260904201205 | 21 | 135 | 1.6 | 3.2 | 0.00 | 0.00 | 0.00 | 59 | 1011.9 |
| 20260904193704 | 20 | 317 | 0.0 | 3.2 | 0.00 | 0.00 | 0.00 | 64 | 1012.0 |
| 20260904193205 | 20 | 310 | 1.6 | 1.6 | 0.00 | 0.00 | 0.00 | 65 | 1012.0 |
| 20260904191705 | 18 | 77 | 0.0 | 3.2 | 0.00 | 0.00 | 0.00 | 73 | 1012.1 |
| 20260904191205 | 18 | 239 | 0.0 | 3.2 | 0.00 | 0.00 | 0.00 | 71 | 1012.1 |
| 20260904190204 | 17 | 105 | 0.0 | 3.2 | 0.00 | 0.00 | 0.00 | 74 | 1012.1 |
| 20260904185704 | 17 | 17 | 1.6 | 3.2 | 0.00 | 0.00 | 0.00 | 75 | 1012.1 |
| 20260904184705 | 16 | 19 | 0.0 | 3.2 | 0.00 | 0.00 | 0.00 | 82 | 1012.2 |
| 20260904184204 | 16 | 19 | 0.0 | 3.2 | 0.00 | 0.00 | 0.00 | 80 | 1012.3 |
| 20260904183704 | 16 | 19 | 0.0 | 0.0 | 0.00 | 0.00 | 0.00 | 81 | 1012.3 |
| 20260904183204 | 16 | 19 | 0.0 | 3.2 | 0.00 | 0.00 | 0.00 | 81 | 1012.3 |
| 20260904182204 | 16 | 19 | 0.0 | 3.2 | 0.00 | 0.00 | 0.00 | 81 | 1012.2 |
| 20260904181204 | 16 | 75 | 0.0 | 3.2 | 0.00 | 0.00 | 0.00 | 84 | 1012.1 |
| 20260904175205 | 15 | 61 | 1.6 | 3.2 | 0.00 | 0.00 | 0.00 | 83 | 1012.1 |
| 20260904174705 | 15 | 61 | 0.0 | 3.2 | 0.00 | 0.00 | 0.00 | 83 | 1012.1 |
| 20260904173704 | 15 | 61 | 0.0 | 3.2 | 0.00 | 0.00 | 0.00 | 85 | 1012.1 |
| 20260904173204 | 15 | 61 | 0.0 | 3.2 | 0.00 | 0.00 | 0.00 | 85 | 1012.1 |
| 20260904172705 | 15 | 61 | 0.0 | 3.2 | 0.00 | 0.00 | 0.00 | 85 | 1012.2 |
| 20260904171705 | 15 | 61 | 0.0 | 3.2 | 0.00 | 0.00 | 0.00 | 85 | 1012.1 |
| 20260904171204 | 15 | 61 | 0.0 | 0.0 | 0.00 | 0.00 | 0.00 | 85 | 1012.1 |
| 20260904170704 | 15 | 61 | 0.0 | 0.0 | 0.00 | 0.00 | 0.00 | 85 | 1012.1 |
| 20260904170204 | 15 | 61 | 0.0 | 3.2 | 0.00 | 0.00 | 0.00 | 86 | 1012.0 |
| 20260904165204 | 15 | 61 | 0.0 | 3.2 | 0.00 | 0.00 | 0.00 | 85 | 1012.0 |
| 20260904164704 | 15 | 61 | 1.6 | 3.2 | 0.00 | 0.00 | 0.00 | 85 | 1011.9 |
| 20260904163704 | 14 | 273 | 0.0 | 3.2 | 0.00 | 0.00 | 0.00 | 85 | 1012.0 |
| 20260904162704 | 14 | 273 | 0.0 | 3.2 | 0.00 | 0.00 | 0.00 | 86 | 1012.0 |
| 20260904161705 | 14 | 318 | 0.0 | 3.2 | 0.00 | 0.00 | 0.00 | 88 | 1012.0 |
| 20260904160705 | 13 | 341 | 0.0 | 3.2 | 0.00 | 0.00 | 0.00 | 89 | 1012.0 |
| 20260904154704 | 12 | 116 | 0.0 | 3.2 | 0.00 | 0.00 | 0.00 | 91 | 1011.9 |
| 20260904154205 | 12 | 116 | 0.0 | 3.2 | 0.00 | 0.00 | 0.00 | 91 | 1011.9 |
| 20260904152204 | 12 | 116 | 0.0 | 0.0 | 0.00 | 0.00 | 0.00 | 92 | 1011.8 |
| 20260904151704 | 12 | 116 | 0.0 | 0.0 | 0.00 | 0.00 | 0.00 | 92 | 1011.7 |
| 20260904151205 | 12 | 116 | 0.0 | 0.0 | 0.00 | 0.00 | 0.00 | 92 | 1011.7 |
| 20260904150705 | 12 | 116 | 0.0 | 0.0 | 0.00 | 0.00 | 0.00 | 92 | 1011.6 |
| 20260904150204 | 12 | 116 | 0.0 | 0.0 | 0.00 | 0.00 | 0.00 | 92 | 1011.5 |
| 20260904145704 | 12 | 116 | 0.0 | 0.0 | 0.00 | 0.00 | 0.00 | 92 | 1011.4 |
| 20260904145204 | 12 | 116 | 0.0 | 0.0 | 0.00 | 0.00 | 0.00 | 92 | 1011.3 |
| 20260904144704 | 12 | 116 | 0.0 | 0.0 | 0.00 | 0.00 | 0.00 | 92 | 1011.3 |
| 20260904142704 | 12 | 116 | 0.0 | 0.0 | 0.00 | 0.00 | 0.00 | 92 | 1011.2 |
| 20260904142205 | 12 | 116 | 0.0 | 0.0 | 0.00 | 0.00 | 0.00 | 92 | 1011.1 |
| 20260904141705 | 12 | 116 | 0.0 | 0.0 | 0.00 | 0.03 | 0.00 | 92 | 1011.1 |
| 20260904140704 | 12 | 116 | 0.0 | 0.0 | 0.00 | 0.03 | 0.00 | 92 | 1011.0 |
| 20260904135704 | 12 | 116 | 0.0 | 0.0 | 0.00 | 0.03 | 0.00 | 92 | 1010.9 |
| 20260904131204 | 12 | 116 | 0.0 | 0.0 | 0.00 | 0.03 | 0.00 | 91 | 1010.2 |
| 20260904130705 | 12 | 116 | 0.0 | 0.0 | 0.00 | 0.03 | 0.00 | 91 | 1010.2 |
| 20260904130204 | 12 | 116 | 0.0 | 3.2 | 0.00 | 0.03 | 0.00 | 91 | 1010.1 |
| 20260904125205 | 12 | 116 | 0.0 | 3.2 | 0.00 | 0.03 | 0.00 | 91 | 1010.1 |
| 20260904123205 | 12 | 116 | 0.0 | 3.2 | 0.00 | 0.03 | 0.00 | 91 | 1010.1 |
| 20260904122704 | 12 | 116 | 0.0 | 3.2 | 0.00 | 0.03 | 0.00 | 90 | 1010.1 |
| 20260904120704 | 12 | 116 | 0.0 | 3.2 | 0.00 | 0.03 | 0.00 | 91 | 1010.1 |
| 20260904114205 | 12 | 116 | 0.0 | 3.2 | 0.00 | 0.03 | 0.00 | 90 | 1009.7 |
| 20260904113704 | 12 | 116 | 0.0 | 3.2 | 0.00 | 0.03 | 0.00 | 90 | 1009.6 |
| 20260904113205 | 12 | 116 | 0.0 | 0.0 | 0.00 | 0.03 | 0.00 | 90 | 1009.6 |
| 20260904105704 | 12 | 116 | 0.0 | 3.2 | 0.00 | 0.08 | 0.00 | 90 | 1009.5 |
| 20260904104704 | 12 | 116 | 0.0 | 0.0 | 0.00 | 0.08 | 0.00 | 89 | 1009.6 |
| 20260904104204 | 12 | 116 | 0.0 | 0.0 | 0.00 | 0.08 | 0.00 | 89 | 1009.5 |
| 20260904103705 | 12 | 116 | 0.0 | 0.0 | 0.00 | 0.08 | 0.00 | 89 | 1009.4 |
| 20260904102704 | 12 | 116 | 0.0 | 0.0 | 0.00 | 0.08 | 0.00 | 89 | 1009.5 |
| 20260904102204 | 12 | 116 | 0.0 | 0.0 | 0.00 | 0.08 | 0.00 | 89 | 1009.5 |
| 20260904101204 | 12 | 116 | 0.0 | 0.0 | 0.00 | 0.08 | 0.00 | 88 | 1009.3 |
| 20260904100704 | 12 | 116 | 0.0 | 1.6 | 0.00 | 0.08 | 0.00 | 88 | 1009.3 |
| 20260904095704 | 12 | 116 | 0.0 | 3.2 | 0.00 | 0.08 | 0.00 | 88 | 1009.1 |
| 20260904094705 | 12 | 116 | 0.0 | 0.0 | 0.00 | 0.08 | 0.00 | 88 | 1009.2 |
| 20260904092204 | 12 | 89 | 0.0 | 1.6 | 0.00 | 0.08 | 0.00 | 86 | 1009.0 |
| 20260904091704 | 12 | 69 | 0.0 | 0.0 | 0.00 | 0.08 | 0.00 | 84 | 1008.9 |
| 20260904091204 | 12 | 69 | 0.0 | 0.0 | 0.00 | 0.08 | 0.00 | 84 | 1009.0 |
| 20260904090704 | 12 | 69 | 0.0 | 0.0 | 0.00 | 0.08 | 0.00 | 85 | 1009.1 |
| 20260904090204 | 12 | 69 | 0.0 | 0.0 | 0.00 | 0.08 | 0.00 | 84 | 1009.1 |
| 20260904085204 | 13 | 69 | 0.0 | 0.0 | 0.00 | 0.08 | 0.00 | 84 | 1009.2 |
| 20260904084204 | 13 | 69 | 0.0 | 0.0 | 0.00 | 0.08 | 0.00 | 85 | 1009.3 |
| 20260904083205 | 13 | 69 | 0.0 | 0.0 | 0.00 | 0.08 | 0.00 | 84 | 1009.4 |
| 20260904082204 | 13 | 69 | 0.0 | 0.0 | 0.00 | 0.08 | 0.00 | 84 | 1009.5 |
| 20260904080704 | 13 | 69 | 0.0 | 0.0 | 0.00 | 0.08 | 0.00 | 82 | 1009.5 |
| 20260904075704 | 13 | 69 | 0.0 | 0.0 | 0.00 | 0.08 | 0.00 | 83 | 1009.4 |
| 20260904074704 | 13 | 69 | 0.0 | 0.0 | 0.00 | 0.08 | 0.00 | 80 | 1009.4 |
| 20260904074204 | 13 | 69 | 0.0 | 0.0 | 0.00 | 0.08 | 0.00 | 80 | 1009.4 |
| 20260904073705 | 13 | 69 | 0.0 | 0.0 | 0.00 | 0.08 | 0.00 | 81 | 1009.3 |
| 20260904073205 | 13 | 69 | 0.0 | 0.0 | 0.00 | 0.08 | 0.00 | 81 | 1009.3 |
| 20260904070705 | 13 | 69 | 0.0 | 0.0 | 0.00 | 0.08 | 0.00 | 80 | 1009.1 |
| 20260904070204 | 13 | 69 | 0.0 | 0.0 | 0.00 | 0.08 | 0.00 | 80 | 1009.1 |
| 20260904064704 | 13 | 69 | 0.0 | 0.0 | 0.00 | 0.08 | 0.08 | 82 | 1009.2 |
| 20260904063204 | 13 | 69 | 0.0 | 0.0 | 0.00 | 0.08 | 0.08 | 80 | 1009.1 |
| 20260904062704 | 13 | 69 | 0.0 | 0.0 | 0.00 | 0.08 | 0.08 | 80 | 1009.1 |
| 20260904061204 | 13 | 69 | 0.0 | 0.0 | 0.00 | 0.08 | 0.08 | 81 | 1009.0 |
| 20260904060705 | 13 | 69 | 0.0 | 0.0 | 0.00 | 0.08 | 0.08 | 79 | 1008.9 |
| 20260904055204 | 13 | 69 | 0.0 | 0.0 | 0.00 | 0.08 | 0.08 | 80 | 1009.0 |
| 20260904053204 | 14 | 69 | 0.0 | 0.0 | 0.00 | 0.08 | 0.08 | 77 | 1009.0 |
| 20260904051704 | 14 | 69 | 0.0 | 0.0 | 0.00 | 0.08 | 0.08 | 75 | 1009.1 |
| 20260904051204 | 14 | 69 | 0.0 | 0.0 | 0.00 | 0.08 | 0.08 | 75 | 1009.1 |
| 20260904045704 | 15 | 69 | 0.0 | 0.0 | 0.00 | 0.08 | 0.08 | 75 | 1009.1 |
| 20260904044205 | 15 | 69 | 0.0 | 0.0 | 0.00 | 0.08 | 0.08 | 75 | 1009.1 |
| 20260904043705 | 15 | 69 | 0.0 | 0.0 | 0.00 | 0.08 | 0.08 | 75 | 1009.1 |
| 20260904043205 | 15 | 69 | 0.0 | 0.0 | 0.00 | 0.08 | 0.08 | 75 | 1009.0 |
| 20260904042704 | 15 | 69 | 0.0 | 0.0 | 0.00 | 0.08 | 0.08 | 76 | 1009.1 |
| 20260904042204 | 14 | 69 | 0.0 | 0.0 | 0.00 | 0.08 | 0.08 | 77 | 1009.2 |
| 20260904041704 | 14 | 69 | 0.0 | 0.0 | 0.00 | 0.08 | 0.08 | 77 | 1009.2 |
| 20260904040705 | 14 | 69 | 0.0 | 0.0 | 0.00 | 0.08 | 0.08 | 78 | 1009.1 |
| 20260904035704 | 14 | 69 | 0.0 | 0.0 | 0.00 | 0.08 | 0.08 | 78 | 1009.0 |
| 20260904035204 | 14 | 69 | 0.0 | 0.0 | 0.00 | 0.08 | 0.08 | 78 | 1009.0 |
| 20260904034704 | 14 | 69 | 0.0 | 0.0 | 0.00 | 0.08 | 0.08 | 77 | 1008.9 |
| 20260904034204 | 14 | 69 | 0.0 | 0.0 | 0.00 | 0.08 | 0.08 | 77 | 1008.8 |
| 20260904033204 | 14 | 69 | 0.0 | 0.0 | 0.00 | 0.08 | 0.08 | 78 | 1008.8 |
| 20260904032704 | 15 | 69 | 0.0 | 0.0 | 0.00 | 0.08 | 0.08 | 78 | 1008.7 |
| 20260904032204 | 15 | 69 | 0.0 | 0.0 | 0.00 | 0.08 | 0.08 | 79 | 1008.6 |
| 20260904031204 | 15 | 69 | 0.0 | 0.0 | 0.00 | 0.08 | 0.08 | 78 | 1008.6 |
| 20260904025704 | 15 | 69 | 0.0 | 0.0 | 0.00 | 0.08 | 0.08 | 77 | 1008.5 |
| 20260904024204 | 15 | 69 | 0.0 | 0.0 | 0.00 | 0.08 | 0.08 | 77 | 1008.5 |
| 20260904023704 | 15 | 69 | 0.0 | 0.0 | 0.00 | 0.08 | 0.08 | 79 | 1008.3 |
| 20260904023204 | 15 | 69 | 0.0 | 0.0 | 0.00 | 0.08 | 0.08 | 79 | 1008.3 |
| 20260904022204 | 15 | 69 | 0.0 | 0.0 | 0.00 | 0.08 | 0.08 | 77 | 1008.2 |
| 20260904021704 | 16 | 69 | 0.0 | 0.0 | 0.00 | 0.08 | 0.08 | 78 | 1008.2 |
| 20260904021204 | 16 | 69 | 0.0 | 0.0 | 0.00 | 0.08 | 0.08 | 77 | 1008.2 |
| 20260904020704 | 16 | 69 | 0.0 | 0.0 | 0.00 | 0.08 | 0.08 | 77 | 1008.2 |
| 20260904020204 | 16 | 69 | 0.0 | 0.0 | 0.00 | 0.08 | 0.08 | 76 | 1008.1 |
| 20260904015704 | 16 | 69 | 0.0 | 0.0 | 0.00 | 0.08 | 0.08 | 76 | 1008.0 |
| 20260904015204 | 16 | 69 | 0.0 | 0.0 | 0.00 | 0.08 | 0.08 | 76 | 1008.0 |
| 20260904014704 | 16 | 69 | 0.0 | 0.0 | 0.00 | 0.08 | 0.08 | 76 | 1008.1 |
| 20260904014204 | 16 | 69 | 0.0 | 0.0 | 0.00 | 0.08 | 0.08 | 74 | 1008.2 |
| 20260904012704 | 17 | 69 | 0.0 | 0.0 | 0.00 | 0.08 | 0.08 | 74 | 1008.1 |
| 20260904012204 | 17 | 69 | 0.0 | 0.0 | 0.00 | 0.08 | 0.08 | 72 | 1008.1 |
| 20260904011704 | 17 | 69 | 0.0 | 0.0 | 0.00 | 0.08 | 0.08 | 74 | 1008.1 |
| 20260904010704 | 17 | 69 | 0.0 | 3.2 | 0.00 | 0.08 | 0.08 | 73 | 1008.0 |
| 20260904005704 | 17 | 125 | 0.0 | 1.6 | 0.00 | 0.08 | 0.08 | 74 | 1008.0 |
| 20260904004204 | 17 | 125 | 0.0 | 3.2 | 0.00 | 0.08 | 0.08 | 72 | 1007.9 |
| 20260904003704 | 17 | 125 | 0.0 | 1.6 | 0.00 | 0.08 | 0.08 | 73 | 1007.9 |
| 20260904002704 | 17 | 125 | 0.0 | 3.2 | 0.00 | 0.08 | 0.08 | 72 | 1007.9 |
| 20260904001704 | 17 | 125 | 0.0 | 3.2 | 0.00 | 0.08 | 0.08 | 72 | 1007.9 |
| 20260904001204 | 17 | 125 | 0.0 | 3.2 | 0.00 | 0.08 | 0.08 | 73 | 1007.9 |
| 20260904000704 | 17 | 125 | 0.0 | 1.6 | 0.00 | 0.08 | 0.08 | 73 | 1007.9 |
| 20260903234704 | 17 | 125 | 0.0 | 3.2 | 0.00 | 0.08 | 0.08 | 75 | 1007.9 |
| 20260903234203 | 17 | 125 | 0.0 | 3.2 | 0.00 | 0.08 | 0.08 | 74 | 1007.9 |
| 20260903233204 | 17 | 125 | 0.0 | 3.2 | 0.00 | 0.08 | 0.08 | 76 | 1008.0 |
| 20260903232704 | 17 | 125 | 0.0 | 1.6 | 0.00 | 0.08 | 0.08 | 72 | 1008.0 |